Flag for Turks and Caicos Islands

Past Weather in Cockburn Town, Turks and Caicos Islands — Yesterday and Last 2 Weeks

Now
75 °F

Passing clouds.


Feels Like: 73 °F
Forecast: 86 / 82 °F
Wind: No wind

Location: Puerto Plata International
Current Time: Sep 21, 2020 at 6:48:19 am
Latest Report: Sep 21, 2020 at 5:00 am
Visibility: N/A
Pressure29.86 "Hg
Humidity: 100%
Dew Point: 75 °F
Location of Cockburn TownLocation

Past Weather in Cockburn Town — Graph

°F

Cockburn Town Temperature Yesterday

Maximum temperature yesterday: 90 °F (at 3:00 pm)
Minimum temperature yesterday: 75 °F (at 5:00 am)
Average temperature yesterday: 83 °F

High & Low Weather Summary for the Past Weeks

 TemperatureHumidityPressure
High91 °F (Sep 6, 2:00 pm)100% (Sep 6, 5:00 am)30.01 "Hg (Sep 6, 5:00 am)
Low72 °F (Sep 12, 7:00 am)59% (Sep 13, 11:00 am)29.77 "Hg (Sep 7, 4:00 pm)
Average84 °F82%29.89 "Hg
* Reported Sep 6 5:00 am — Sep 21 5:00 am, Cockburn Town. Weather by CustomWeather, © 2020

Note: Actual official high and low records may vary slightly from our data, if they occured in-between our weather recording intervals... More about our weather records

Cockburn Town Weather History for the Previous 24 Hours

Scroll right to see more
 ConditionsComfort  
Time TempWeatherWind HumidityBarometerVisibility
5:00 am
Mon, Sep 21
75 °FPassing clouds.No wind100%29.86 "HgN/A
2:00 am77 °FPassing clouds.No wind94%29.86 "HgN/A
11:00 pm
Sun, Sep 20
81 °FPassing clouds.No wind94%29.89 "HgN/A
10:00 pm79 °FPassing clouds.No wind94%29.89 "HgN/A
9:00 pm81 °FPassing clouds.No wind89%29.86 "HgN/A
8:00 pm82 °FPassing clouds.No wind84%29.86 "HgN/A
7:00 pm84 °FPassing clouds.No wind84%29.86 "HgN/A
6:00 pm86 °FScattered clouds.6 mph79%29.83 "HgN/A
5:00 pm86 °FScattered clouds.7 mph79%29.83 "HgN/A
4:00 pm88 °FScattered clouds.7 mph70%29.83 "HgN/A
3:00 pm90 °FScattered clouds.9 mph71%29.83 "HgN/A
2:00 pm88 °FScattered clouds.12 mph75%29.86 "HgN/A
1:00 pm88 °FPassing clouds.12 mph70%29.86 "HgN/A
12:00 pm88 °FPassing clouds.6 mph70%29.89 "HgN/A
11:00 am88 °FPassing clouds.9 mph66%29.89 "HgN/A
10:00 am86 °FPassing clouds.6 mph75%29.89 "HgN/A
9:00 am84 °FPassing clouds.No wind79%29.89 "HgN/A
8:00 am79 °FPassing clouds.6 mph89%29.86 "HgN/A
7:00 am75 °FPassing clouds.No wind100%29.86 "HgN/A
Weather by CustomWeather, © 2020

See weather overview